Custer, SD

12:54 PM MDT on May 29, 2017 (GMT -0600)
Custer County

Weather History for KCUT - June, 2014

Change the Weather History Date:

Tuesday, June 10, 2014

  Actual Average Record
Temperature  
Mean Temperature 57 °F 56 °F  
Max Temperature 73 °F 68 °F 89 °F (1988)
Min Temperature 41 °F 45 °F 28 °F (1950)
Degree Days  
Heating Degree Days 8 9  
Month to date heating degree days 130 105  
Since 1 June heating degree days 130 105  
Since 1 July heating degree days 8290 8274  
Cooling Degree Days 0 0  
Month to date cooling degree days 0 0  
Year to date cooling degree days 4 1  
Since 1 June cooling degree days 0 0  
Growing Degree Days 8 (Base 50)    
Moisture  
Dew Point 44 °F    
Average Humidity 59    
Maximum Humidity 89    
Minimum Humidity 29    
Precipitation  
Precipitation 0.35 in 0.12 in 3.45 in (1972)
Month to date precipitation 1.58 1.24  
Year to date precipitation 9.30 8.35  
Sea Level Pressure  
Sea Level Pressure 29.80 in    
Wind  
Wind Speed 6 mph (NW)    
Max Wind Speed 24 mph    
Max Gust Speed 36 mph    
Visibility 9 miles    
Events Rain , Thunderstorm    
T = Trace of Precipitation, MM = Missing Value Source: NWS Daily Summary

Daily Weather History Graph

Daily Weather History Graph

Search for Another Location

Airport or City:

Trip Planner

Search our weather history database for the weather conditions in past years. The results will help you decide how hot, cold, wet, or windy it might be!

Date:

Astronomy

Jun. 10, 2014 Rise Set
Actual Time 5:12 AM MDT 8:35 PM MDT
Civil Twilight 4:36 AM MDT 9:11 PM MDT
Nautical Twilight 3:50 AM MDT 9:58 PM MDT
Astronomical Twilight 2:51 AM MDT 10:56 PM MDT
Moon 5:59 PM MDT (6/10) 3:25 AM MDT (6/10)
Length of Visible Light 16h 34m
Length of Day
15h 23m
Waxing Gibbous, 92% of the Moon is Illuminated
Jun 10
Waxing Gibbous
Jun 12
Full
Jun 19
Last Quarter
Jun 27
New
Jul 5
First Quarter

Hourly Weather History & Observations

Time (MDT) Temp. Windchill Dew Point Humidity Pressure Visibility Wind Dir Wind Speed Gust Speed Precip Events Conditions
12:53 AM 45.0 °F 41.8 °F 36.0 °F 71% 29.88 in 10.0 mi West 5.8 mph - N/A   Clear
1:53 AM 45.0 °F 43.5 °F 36.0 °F 71% 29.87 in 10.0 mi WSW 3.5 mph - N/A   Clear
2:53 AM 44.1 °F 41.5 °F 34.0 °F 68% 29.85 in 10.0 mi West 4.6 mph - N/A   Clear
3:53 AM 43.0 °F 40.3 °F 33.1 °F 68% 29.84 in 10.0 mi West 4.6 mph - N/A   Clear
4:53 AM 45.0 °F 41.8 °F 34.0 °F 65% 29.83 in 10.0 mi WNW 5.8 mph - N/A   Clear
5:53 AM 44.1 °F 41.5 °F 36.0 °F 73% 29.83 in 10.0 mi NW 4.6 mph - N/A   Clear
6:53 AM 54.0 °F - 39.0 °F 57% 29.81 in 10.0 mi NW 5.8 mph - N/A   Clear
9:53 AM 70.0 °F - 39.0 °F 32% 29.78 in 10.0 mi Variable 5.8 mph - N/A   Clear
10:53 AM 72.0 °F - 37.9 °F 29% 29.78 in 10.0 mi Variable 5.8 mph - N/A   Partly Cloudy
11:53 AM 72.0 °F - 43.0 °F 35% 29.79 in 10.0 mi Variable 5.8 mph - N/A   Clear
1:53 PM 71.1 °F - 48.0 °F 44% 29.77 in 10.0 mi South 10.4 mph - N/A   Clear
3:53 PM 70.0 °F - 48.9 °F 47% 29.75 in 10.0 mi ESE 11.5 mph 17.3 mph N/A   Clear
4:53 PM 64.9 °F - 48.9 °F 56% 29.75 in 10.0 mi East 12.7 mph - N/A   Mostly Cloudy
5:53 PM 64.9 °F - 48.9 °F 56% 29.73 in 10.0 mi East 9.2 mph - N/A   Clear
6:53 PM 63.0 °F - 51.1 °F 65% 29.68 in 10.0 mi East 8.1 mph - N/A   Scattered Clouds
7:53 PM 57.9 °F - 53.1 °F 84% 29.70 in 3.0 mi NNW 12.7 mph 20.7 mph 0.07 in Rain , Thunderstorm Heavy Rain
8:01 PM 55.9 °F - 50.0 °F 80% 29.88 in 4.0 mi NW 18.4 mph 35.7 mph 0.08 in Rain , Thunderstorm Thunderstorms and Rain
8:19 PM 51.1 °F - 48.0 °F 89% 29.93 in 2.0 mi West 18.4 mph 32.2 mph 0.21 in Rain , Thunderstorm Heavy Thunderstorms and Rain
8:32 PM 51.1 °F - 48.0 °F 89% 29.89 in 5.0 mi North 6.9 mph - 0.27 in Rain , Thunderstorm Light Thunderstorms and Rain
8:41 PM 51.1 °F - 48.0 °F 89% 29.88 in 10.0 mi North 4.6 mph - 0.28 in Rain , Thunderstorm Light Rain
9:02 PM 51.1 °F - 48.9 °F 92% 29.83 in 10.0 mi Calm Calm - 0.00 in   Overcast
9:53 PM 51.1 °F - 48.0 °F 89% 29.70 in 10.0 mi NNW 5.8 mph - 0.00 in   Partly Cloudy
10:53 PM 55.0 °F - 45.0 °F 69% 29.70 in 10.0 mi WNW 8.1 mph - N/A   Overcast
11:53 PM 54.0 °F - 46.9 °F 77% 29.70 in 10.0 mi NNW 6.9 mph - N/A   Overcast